Zurück zum Katalog

STARLINK-36705

AktivKommunikationSSO
NORAD 67712·PAYLOAD·🇺🇸 United States

Gestartet Feb 7, 2026 von Vandenberg Space Force Base

Loading…

Nächste Überflüge (nächste 24 Stunden)

TLE

AktuellSource: CelesTrak SupGP

Epoche: Sep 15, 2026, 03:07 UTC

1 67712C 26025V   26258.13034722 -.00005904  00000+0 -18326-3 0  2583
2 67712  97.2852   8.0790 0001022  98.1655 162.4509 15.33444535    16

Verfolge STARLINK-36705 in Echtzeit mit AllMySat

Download on the App Store